TimeEDT,TemperatureF,Dew PointF,Humidity,Sea Level PressureIn,VisibilityMPH,Wind Direction,Wind SpeedMPH,Gust SpeedMPH,PrecipitationIn,Events,Conditions,WindDirDegrees,DateUTC
12:53 AM,62.1,57.0,84,30.06,10.0,Calm,Calm,-,N/A,,Clear,0,2013-09-15 04:53:00
1:53 AM,62.1,57.9,86,30.06,10.0,Calm,Calm,-,N/A,,Clear,0,2013-09-15 05:53:00
2:53 AM,57.9,55.9,93,30.08,10.0,Calm,Calm,-,N/A,,Clear,0,2013-09-15 06:53:00
3:53 AM,61.0,57.9,90,30.07,10.0,Calm,Calm,-,N/A,,Clear,0,2013-09-15 07:53:00
4:53 AM,62.1,57.9,86,30.08,10.0,East,3.5,-,N/A,,Clear,80,2013-09-15 08:53:00
5:53 AM,61.0,57.9,90,30.09,10.0,Calm,Calm,-,N/A,,Partly Cloudy,0,2013-09-15 09:53:00
6:53 AM,61.0,57.9,90,30.11,10.0,Calm,Calm,-,N/A,,Clear,0,2013-09-15 10:53:00
7:53 AM,60.1,57.9,93,30.14,9.0,Calm,Calm,-,N/A,,Partly Cloudy,0,2013-09-15 11:53:00
8:08 AM,60.8,59.0,94,30.16,9.0,Calm,Calm,-,N/A,,Mostly Cloudy,0,2013-09-15 12:08:00
8:16 AM,62.6,60.8,94,30.16,10.0,Calm,Calm,-,N/A,,Mostly Cloudy,0,2013-09-15 12:16:00
8:53 AM,64.9,61.0,87,30.14,10.0,East,5.8,-,N/A,,Overcast,100,2013-09-15 12:53:00
9:53 AM,69.1,62.1,78,30.14,10.0,East,8.1,-,N/A,,Scattered Clouds,100,2013-09-15 13:53:00
10:29 AM,71.6,62.6,73,30.18,10.0,East,4.6,-,N/A,,Mostly Cloudy,80,2013-09-15 14:29:00
10:53 AM,73.0,64.0,73,30.15,10.0,East,6.9,-,N/A,,Mostly Cloudy,100,2013-09-15 14:53:00
11:53 AM,73.9,64.9,73,30.15,9.0,Variable,5.8,-,N/A,,Overcast,0,2013-09-15 15:53:00
1:53 PM,82.0,66.0,58,30.12,10.0,East,5.8,-,N/A,,Scattered Clouds,90,2013-09-15 17:53:00
2:53 PM,82.9,64.0,53,30.09,10.0,ESE,5.8,-,N/A,,Scattered Clouds,120,2013-09-15 18:53:00
3:53 PM,82.9,64.0,53,30.08,10.0,South,3.5,-,N/A,,Partly Cloudy,190,2013-09-15 19:53:00
4:53 PM,84.0,64.9,53,30.07,10.0,Variable,4.6,-,N/A,,Partly Cloudy,0,2013-09-15 20:53:00
5:53 PM,82.9,66.9,58,30.07,10.0,SSE,4.6,-,N/A,,Scattered Clouds,160,2013-09-15 21:53:00
6:53 PM,78.1,68.0,71,30.08,10.0,Calm,Calm,-,N/A,,Mostly Cloudy,0,2013-09-15 22:53:00
7:53 PM,71.1,68.0,90,30.09,6.0,Calm,Calm,-,N/A,,Clear,0,2013-09-15 23:53:00
8:53 PM,70.0,68.0,93,30.09,6.0,Calm,Calm,-,N/A,,Clear,0,2013-09-16 00:53:00
9:53 PM,68.0,66.0,93,30.11,7.0,Calm,Calm,-,N/A,,Clear,0,2013-09-16 01:53:00
10:53 PM,66.9,66.0,97,30.11,7.0,Calm,Calm,-,N/A,,Clear,0,2013-09-16 02:53:00
11:53 PM,66.0,64.9,96,30.11,4.0,Calm,Calm,-,N/A,,Clear,0,2013-09-16 03:53:00